星链-3673 (STARLINK-3673 )

导读 | 星芒AI

STARLINK-3673 是 SpaceX Starlink 项目中的一颗低轨通信卫星,属于第 13 批(v1.5 版本)部署的卫星之一。该卫星于 2022 年 9 月 30 日由猎鹰 9 号火箭送入近地轨道,旨在为全球提供高速互联网服务。它运行在约 540 公里的高度,设计寿命约 5 至 7 年,具备先进的相控阵天线和激光通信能力,以提升网络效率和覆盖范围。STARLINK-3673 的部署进一步增强了 Starlink 网络的稳定性和服务能力。

基本信息
目录编号:
52093
目录名称:
STARLINK-3673
国际标识:
2022-029F
轨道中心:
EARTH
卫星名称:
星链-3673
卫星全名:
星链-3673 (STARLINK-3673 )
卫星状态:
在轨 (已飞行1326 天)
发射日期:
2022-03-19 UTC
国别 :
美国 (US)
星等 :
--
轨道信息
数据来源 国际轨道数据
星历时间: 2025-11-04T14:45:46+0800
11小时前
查看轨道信息
半长轴: 6917.87km
偏心率: 0.0001415
轨道倾角: 53.218°
近地点辐角 89.941°
升交点赤经 292.108°
平近点角 270.175°
近地点: 538.756km
远地点: 540.714km
周期: 95.437分钟
每日圈数: 15.088435
详细信息
固有亮度:
5
最大亮度:
2.5
卫星平台:
Starlink v1.5
覆盖范围:
全球
运营商:
太空探索技术公司
运营商所在国:
美国
制造商(研发单位):
太空探索技术公司
制造商所在国:
美国
使用方式:
暂无
卫星简介
星链(Starlink)计划是由太空探索技术公司(SpaceX)提出的一个巨型低轨卫星互联网星座项目,计划在2019年至2024年间在太空搭建由约1.2万颗卫星组成的“星链”网络,其中1584颗将部署在地球上空550千米处的近地轨道,并从2020年开始工作。该卫星仍在工作。
2D轨道图
3D轨道图
轨道高度分析图
轨道倾角分析图
轨道综合分析图
查看轨道综合分析图